Castaic Lake Weather Center

Moon Phase Calendar



Castaic Lake Water Level
Online Cameras

 


      

Current Conditions in Castaic
5/20/2024 9:15:55 PM

54°F
Feels Like 53
Clear
Humidity
81%
Pressure
29.91"
Wind
4.5 mph (WSW)
Dew Point
48°F
UV Index
0/10 (Low)
Visibility
6 mi

Hourly Forecast

Date & Time Mon, May 20
9:00 PM
Mon, May 20
10:00 PM
Mon, May 20
11:00 PM
Tue, May 21
12:00 AM
Tue, May 21
1:00 AM
Tue, May 21
2:00 AM
Tue, May 21
3:00 AM
Tue, May 21
4:00 AM
Tue, May 21
5:00 AM
Tue, May 21
6:00 AM
Tue, May 21
7:00 AM
Tue, May 21
8:00 AM
Tue, May 21
9:00 AM
Tue, May 21
10:00 AM
Tue, May 21
11:00 AM
Tue, May 21
12:00 PM
Tue, May 21
1:00 PM
Tue, May 21
2:00 PM
Tue, May 21
3:00 PM
Tue, May 21
4:00 PM
Tue, May 21
5:00 PM
Tue, May 21
6:00 PM
Tue, May 21
7:00 PM
Tue, May 21
8:00 PM
Tue, May 21
9:00 PM
Tue, May 21
10:00 PM
Tue, May 21
11:00 PM
Wed, May 22
12:00 AM
Wed, May 22
1:00 AM
Wed, May 22
2:00 AM
Wed, May 22
3:00 AM
Wed, May 22
4:00 AM
Wed, May 22
5:00 AM
Wed, May 22
6:00 AM
Wed, May 22
7:00 AM
Wed, May 22
8:00 AM
Wed, May 22
9:00 AM
Wed, May 22
10:00 AM
Wed, May 22
11:00 AM
Wed, May 22
12:00 PM
Wed, May 22
1:00 PM
Wed, May 22
2:00 PM
Wed, May 22
3:00 PM
Wed, May 22
4:00 PM
Wed, May 22
5:00 PM
Wed, May 22
6:00 PM
Wed, May 22
7:00 PM
Wed, May 22
8:00 PM
Condition
Clear

Clear

Clear

Clear

Clear

Clear

Clear

Clear

Clear

Clear

Clear

Clear

Clear

Clear

Clear

Clear

Clear

Clear

Clear

Clear

Clear

Clear

Clear

Clear

Clear

Clear

Clear

Clear

Clear

Clear

Clear

Clear

Clear

Clear

Clear

Clear

Clear

Clear

Clear

Clear

Clear

Clear

Clear

Clear

Clear

Clear

Clear

Clear
Temperature 54°F53°F53°F53°F51°F50°F50°F50°F50°F50°F54°F58°F64°F72°F78°F81°F81°F78°F76°F73°F72°F70°F66°F59°F58°F58°F57°F57°F57°F56°F55°F55°F54°F54°F59°F62°F65°F69°F72°F75°F77°F78°F77°F75°F73°F70°F67°F61°F
Feels Like 53°F52°F52°F51°F50°F50°F50°F50°F50°F50°F53°F57°F63°F70°F77°F79°F79°F77°F75°F72°F71°F69°F65°F58°F56°F56°F56°F56°F55°F55°F54°F53°F53°F52°F57°F60°F64°F67°F70°F73°F76°F77°F76°F74°F72°F69°F66°F60°F
Cloudiness 0%0%0%0%0%0%0%0%0%1%1%0%1%1%0%0%0%0%0%0%0%0%0%0%0%0%0%0%0%0%0%0%0%0%1%1%1%1%1%0%0%0%0%0%0%0%0%0%
Visibility 6 mi6 mi6 mi6 mi6 mi6 mi6 mi6 mi6 mi6 mi6 mi6 mi6 mi6 mi6 mi6 mi6 mi6 mi6 mi6 mi6 mi6 mi6 mi6 mi6 mi6 mi6 mi6 mi6 mi6 mi6 mi6 mi6 mi6 mi6 mi6 mi6 mi6 mi6 mi6 mi6 mi6 mi6 mi6 mi6 mi6 mi6 mi6 mi
Precipitation 0%0%0%0%0%0%0%0%0%0%0%0%0%0%0%0%0%0%0%0%0%0%0%0%0%0%0%0%0%0%0%0%0%0%0%0%0%0%0%0%0%0%0%0%0%0%0%0%
Humidity 81%82%81%80%83%85%86%84%81%84%76%64%49%31%20%17%19%26%34%41%41%44%52%67%69%68%67%65%65%67%67%68%69%70%63%58%51%44%39%36%33%33%34%37%40%45%53%67%
Dew Point 48°F48°F48°F47°F46°F44°F44°F43°F43°F43°F45°F45°F43°F39°F34°F32°F34°F38°F44°F47°F45°F46°F46°F46°F46°F45°F44°F43°F43°F43°F42°F42°F42°F42°F45°F45°F45°F44°F44°F44°F44°F45°F45°F45°F46°F47°F48°F49°F
Pressure 29.91"29.91"29.91"29.94"29.91"29.91"29.94"29.94"29.91"29.94"29.94"29.94"29.91"29.88"29.85"29.85"29.83"29.85"29.85"29.85"29.85"29.85"29.85"29.88"29.88"29.91"29.91"29.91"29.91"29.88"29.88"29.88"29.88"29.91"29.91"29.91"29.91"29.91"29.88"29.88"29.88"29.85"29.85"29.85"29.85"29.83"29.85"29.85"
Wind Speed 4.5 mph3.1 mph2.6 mph2.4 mph0.8 mph1.1 mph0.7 mph2 mph0.6 mph1.5 mph0.6 mph2.1 mph1.2 mph1.7 mph4.2 mph6.4 mph5.4 mph9 mph13 mph12.3 mph9.5 mph7.4 mph5.8 mph4 mph3 mph2.1 mph0.7 mph0.3 mph0.1 mph0.9 mph0.4 mph0.6 mph0.6 mph0.7 mph1.5 mph4 mph4.9 mph7 mph9 mph9.8 mph11.6 mph14 mph12.9 mph11.6 mph11 mph9.9 mph7.8 mph6.1 mph
Wind
Direction
251°
WSW
257°
WSW
255°
WSW
234°
SW
214°
SW
15°
NNE
20°
NNE
296°
WNW
112°
ESE
105°
ESE
136°
SE
160°
SSE
189°
S
144°
SE
87°
E
94°
E
154°
SSE
212°
SSW
229°
SW
222°
SW
221°
SW
235°
SW
224°
SW
228°
SW
270°
W
241°
WSW
258°
WSW
284°
WNW
225°
SW
248°
WSW
274°
W
295°
WNW
344°
NNW
276°
W
212°
SSW
193°
SSW
200°
SSW
202°
SSW
205°
SSW
209°
SSW
215°
SW
221°
SW
222°
SW
219°
SW
225°
SW
227°
SW
230°
SW
244°
WSW

Daily Forecast

Date High Low Precip. Humidity
Today
May 20

Clouds
69 °F
51 °F
0%
68%
Tuesday
May 21

Clear
81 °F
50 °F
0%
17%
Wednesday
May 22

Clear
78 °F
54 °F
0%
36%
Thursday
May 23

Clouds
70 °F
52 °F
0%
60%
Friday
May 24

Clouds
67 °F
49 °F
0%
70%
Saturday
May 25

Clouds
71 °F
47 °F
0%
50%
Sunday
May 26

Clouds
74 °F
50 °F
0%
50%
Monday
May 27

Clear
80 °F
54 °F
0%
39%
Tuesday
May 28

Clouds
87 °F
59 °F
0%
25%
Wednesday
May 29

Clear
87 °F
61 °F
0%
21%
Thursday
May 30

Clear
85 °F
60 °F
0%
20%
Friday
May 31

Clear
84 °F
58 °F
0%
37%
Saturday
Jun 1

Clear
86 °F
58 °F
0%
38%
Sunday
Jun 2

Clear
87 °F
60 °F
0%
28%
Monday
Jun 3

Clear
87 °F
61 °F
0%
35%
Tuesday
Jun 4

Clear
85 °F
61 °F
0%
31%

Temperature 8-14 Day Outlook



Precipitation 8-14 Day Outlook






About Us
Contact Us
Site Map
Search Site
Advertise With Us
   
Castaic.LakesOnline.com
THE CASTAIC LAKE WEBSITE

Copyright 2024, Lakes Online
Privacy    |    Legal